Powrót do katalogu

STARLINK-4457

AktywnyŁącznośćSSO
NORAD 53663·PAYLOAD·🇺🇸 United States

Wystrzelony Aug 31, 2022 z Vandenberg Space Force Base

Loading…

Następne Przeloty (najbliższe 24 godziny)

TLE

ŚwieżeSource: CelesTrak SupGP

Epoka: Sep 14, 2026, 21:56 UTC

1 53663C 22105R   26257.91437500  .00003012  00000+0  93542-4 0  2573
2 53663  97.2839 134.7367 0002270  90.2622 220.4353 15.33420692    11

Śledź STARLINK-4457 w czasie rzeczywistym z AllMySat

Download on the App Store